User: anonymous   Login
Location: Dappach
(48.9767°N, 9.6998°E)
Time: 20:47:39
(UTC+00:00)
Language:

ALOS - Orbit

View from above orbital plane
View from above orbital plane
View from above satellite
View from above satellite

Ground track
Ground track

The orbit data is extracted from the following two-line orbital elements,

1 28931U 06002A   24198.43976861  .00003007  00000-0  55739-3 0  9991
2 28931  98.0373 150.8786 0002489  74.0719 286.0759 14.65985952985633
Epoch (UTC): 16 July 2024 10:33:16
Eccentricity: 0.0002489
inclination: 98.0373°
perigee height: 672 km
apogee height: 675 km
right ascension of ascending node: 150.8786°
argument of perigee: 74.0719°
revolutions per day: 14.65985952
mean anomaly at epoch: 286.0759°
orbit number at epoch: 98563

The dashed part of the orbit path shows where the satellite is in the earth's shadow,  

DLR